Weather History for Laurens, SC

Change the Weather History Date:

Monday, September 9, 2013

  Actual Average (KGSP) Record (KGSP)
Temperature  
Mean Temperature 78 °F 74 °F  
Max Temperature 89 °F 84 °F 101 °F (1939)
Min Temperature 68 °F 64 °F 52 °F (1965)
Degree Days  
Heating Degree Days 0 0  
Month to date heating degree days 0  
Since 1 July heating degree days 0  
Cooling Degree Days 14 9  
Month to date cooling degree days 94  
Year to date cooling degree days 1529  
Growing Degree Days 28 (Base 50)    
Moisture  
Dew Point 66 °F    
Average Humidity 61    
Maximum Humidity 100    
Minimum Humidity 38    
Precipitation  
Precipitation 0.00 in 0.12 in 2.12 in (1890)
Month to date precipitation 1.11  
Year to date precipitation 33.62  
Snow  
Snow 0.00 in 0.00 in 0.00 in ()
Month to date snowfall 0.0  
Since 1 July snowfall 0.0  
Since 1 September snowfall 0.0  
Snow Depth -    
Sea Level Pressure  
Sea Level Pressure 30.09 in    
Wind  
Wind Speed 2 mph (ESE)    
Max Wind Speed 10 mph    
Max Gust Speed 17 mph    
Visibility 9 miles    
Events      
T = Trace of Precipitation, MM = Missing Value Source: NWS Daily Summary

Daily Weather History Graph

Daily Weather History Graph

Search for Another Location

Airport:

Trip Planner

Search our weather history database for the weather conditions in past years. The results will help you decide how hot, cold, wet, or windy it might be!

Date:

Astronomy

Sep. 09, 2013 Rise Set
Actual Time 7:06 AM EDT 7:42 PM EDT
Civil Twilight 6:41 AM EDT 8:07 PM EDT
Nautical Twilight 6:11 AM EDT 8:37 PM EDT
Astronomical Twilight 5:40 AM EDT 9:08 PM EDT
Moon 11:14 AM EDT (9/9) 10:11 PM EDT (9/9)
Length of Visible Light 13h 26m
Length of Day
12h 35m
Waxing Crescent, 19% of the Moon is Illuminated
Sep 9
Waxing Crescent
Sep 12
First Quarter
Sep 19
Full
Sep 26
Last Quarter
Oct 4
New

Hourly Weather History & Observations

Time (EDT) Temp. Heat Index Dew Point Humidity Pressure Visibility Wind Dir Wind Speed Gust Speed Precip Events Conditions
12:15 AM 71.6 °F - - N/A% 30.03 in 10.0 mi Calm Calm - N/A   Clear
12:35 AM 69.8 °F - - N/A% 30.03 in 10.0 mi Calm Calm - N/A   Clear
12:55 AM 69.8 °F - - N/A% 30.03 in 7.0 mi Calm Calm - N/A   Clear
1:15 AM 69.8 °F - - N/A% 30.03 in 7.0 mi Calm Calm - N/A   Clear
1:35 AM 69.8 °F - - N/A% 30.03 in 7.0 mi Calm Calm - N/A   Clear
1:55 AM 69.8 °F - - N/A% 30.04 in 7.0 mi Calm Calm - N/A   Clear
2:15 AM 69.8 °F - - N/A% 30.04 in 7.0 mi Calm Calm - N/A   Clear
2:35 AM 69.8 °F - - N/A% 30.04 in 7.0 mi Calm Calm - N/A   Clear
2:55 AM 69.8 °F - - N/A% 30.03 in 7.0 mi Calm Calm - N/A   Clear
3:15 AM 68.0 °F - - N/A% 30.03 in 5.0 mi Calm Calm - N/A   Haze
3:35 AM 68.0 °F - - N/A% 30.04 in 7.0 mi Calm Calm - N/A   Clear
3:55 AM 68.0 °F - - N/A% 30.04 in 5.0 mi NNW 4.6 mph - N/A   Haze
4:15 AM 68.0 °F - - N/A% 30.04 in 5.0 mi Calm Calm - N/A   Haze
4:35 AM 68.0 °F - - N/A% 30.04 in 5.0 mi Calm Calm - N/A   Haze
4:55 AM 68.0 °F - - N/A% 30.05 in 7.0 mi Calm Calm - N/A   Clear
5:15 AM 68.0 °F - - N/A% 30.05 in 5.0 mi Calm Calm - N/A   Haze
5:35 AM 68.0 °F - - N/A% 30.06 in 7.0 mi Calm Calm - N/A   Clear
5:55 AM 68.0 °F - - N/A% 30.06 in 7.0 mi Calm Calm - N/A   Clear
6:15 AM 68.0 °F - - N/A% 30.06 in 7.0 mi Calm Calm - N/A   Clear
6:35 AM 68.0 °F - - N/A% 30.06 in 7.0 mi Calm Calm - N/A   Clear
6:55 AM 68.0 °F - - N/A% 30.07 in 7.0 mi Calm Calm - N/A   Clear
7:15 AM 68.0 °F - - N/A% 30.07 in 5.0 mi Calm Calm - N/A   Haze
7:55 AM 68.0 °F - - N/A% 30.09 in 5.0 mi Calm Calm - N/A   Haze
8:15 AM 69.8 °F - - N/A% 30.09 in 7.0 mi Calm Calm - N/A   Clear
8:55 AM 73.4 °F - 71.6 °F 94% 30.10 in 10.0 mi Calm Calm - N/A   Clear
9:15 AM 75.2 °F - 69.8 °F 83% 30.10 in 10.0 mi Calm Calm - N/A   Clear
9:35 AM 77.0 °F - 68.0 °F 74% 30.10 in 10.0 mi Calm Calm - N/A   Clear
9:55 AM 78.8 °F - 66.2 °F 65% 30.11 in 10.0 mi East 3.5 mph - N/A   Clear
10:15 AM 80.6 °F 82.7 °F 66.2 °F 61% 30.12 in 10.0 mi East 4.6 mph - N/A   Clear
10:35 AM 80.6 °F 82.7 °F 66.2 °F 61% 30.12 in 10.0 mi Calm Calm - N/A   Clear
10:55 AM 82.4 °F 83.9 °F 64.4 °F 54% 30.13 in 10.0 mi Calm Calm - N/A   Clear
11:15 AM 84.2 °F 85.6 °F 64.4 °F 51% 30.13 in 10.0 mi ENE 4.6 mph - N/A   Clear
11:35 AM 84.2 °F 85.6 °F 64.4 °F 51% 30.13 in 10.0 mi ENE 5.8 mph - N/A   Clear
11:55 AM 86.0 °F 87.3 °F 64.4 °F 48% 30.14 in 10.0 mi ENE 4.6 mph - N/A   Clear
12:15 PM 86.0 °F 87.3 °F 64.4 °F 48% 30.13 in 10.0 mi East 10.4 mph - N/A   Clear
12:35 PM 86.0 °F 87.3 °F 64.4 °F 48% 30.13 in 10.0 mi East 6.9 mph - N/A   Clear
12:55 PM 86.0 °F 87.3 °F 64.4 °F 48% 30.13 in 10.0 mi East 6.9 mph - N/A   Scattered Clouds
1:15 PM 87.8 °F 89.4 °F 64.4 °F 46% 30.13 in 10.0 mi ESE 6.9 mph - N/A   Scattered Clouds
1:35 PM 86.0 °F 86.6 °F 62.6 °F 45% 30.13 in 10.0 mi East 6.9 mph - N/A   Scattered Clouds
1:55 PM 87.8 °F 87.6 °F 60.8 °F 40% 30.13 in 10.0 mi ESE 6.9 mph - N/A   Clear
2:15 PM 87.8 °F 87.6 °F 60.8 °F 40% 30.13 in 10.0 mi ESE 10.4 mph 17.3 mph N/A   Clear
2:35 PM 87.8 °F 87.6 °F 60.8 °F 40% 30.12 in 10.0 mi ESE 8.1 mph - N/A   Clear
2:55 PM 89.6 °F 89.5 °F 60.8 °F 38% 30.11 in 10.0 mi NE 5.8 mph - N/A   Clear
3:15 PM 87.8 °F 87.6 °F 60.8 °F 40% 30.11 in 10.0 mi SE 5.8 mph - N/A   Clear
3:55 PM 87.8 °F 87.6 °F 60.8 °F 40% 30.11 in 10.0 mi ESE 5.8 mph - N/A   Scattered Clouds
4:15 PM 89.6 °F 89.5 °F 60.8 °F 38% 30.11 in 10.0 mi ESE 4.6 mph - N/A   Clear
4:35 PM 89.6 °F 89.5 °F 60.8 °F 38% 30.11 in 10.0 mi ESE 6.9 mph - N/A   Clear
5:15 PM 87.8 °F 87.6 °F 60.8 °F 40% 30.10 in 10.0 mi ESE 4.6 mph - N/A   Clear
5:35 PM 87.8 °F 87.6 °F 60.8 °F 40% 30.10 in 10.0 mi ESE 4.6 mph - N/A   Clear
6:15 PM 86.0 °F 86.6 °F 62.6 °F 45% 30.10 in 10.0 mi Calm Calm - N/A   Clear
6:35 PM 86.0 °F 87.3 °F 64.4 °F 48% 30.10 in 10.0 mi ESE 3.5 mph - N/A   Clear
6:55 PM 86.0 °F 87.3 °F 64.4 °F 48% 30.09 in 10.0 mi SE 4.6 mph - N/A   Clear
7:15 PM 82.4 °F 83.9 °F 64.4 °F 54% 30.09 in 10.0 mi ESE 4.6 mph - N/A   Clear
7:35 PM 80.6 °F 83.2 °F 68.0 °F 65% 30.10 in 10.0 mi Calm Calm - N/A   Clear
7:55 PM 77.0 °F - 69.8 °F 78% 30.10 in 10.0 mi Calm Calm - N/A   Clear
8:15 PM 77.0 °F - 71.6 °F 83% 30.11 in 10.0 mi Calm Calm - N/A   Clear
8:35 PM 73.4 °F - 71.6 °F 94% 30.11 in 10.0 mi Calm Calm - N/A   Clear
8:55 PM 73.4 °F - 73.4 °F 100% 30.11 in 10.0 mi Calm Calm - N/A   Clear
9:15 PM 73.4 °F - 71.6 °F 94% 30.12 in 10.0 mi Calm Calm - N/A   Clear
9:35 PM 73.4 °F - 71.6 °F 94% 30.13 in 10.0 mi ESE 4.6 mph - N/A   Clear
10:15 PM 73.4 °F - 69.8 °F 88% 30.14 in 10.0 mi East 3.5 mph - N/A   Clear
10:35 PM 73.4 °F - 71.6 °F 94% 30.14 in 10.0 mi ESE 3.5 mph - N/A   Clear
11:15 PM 71.6 °F - 71.6 °F 100% 30.16 in 10.0 mi SE 5.8 mph - N/A   Clear
11:35 PM 77.0 °F - 64.4 °F 65% 30.16 in 10.0 mi SSE 5.8 mph - N/A   Clear
11:55 PM 75.2 °F - 66.2 °F 73% 30.17 in 10.0 mi SSE 3.5 mph - N/A   Clear